Powrót do katalogu

OPS 9348

IDSCS 26

AktywnyMilitariaMEO
NORAD 3291·PAYLOAD·🇺🇸 United States

Wystrzelony Jun 13, 1968 z Cape Canaveral Space Force Station

Loading…

Następne Przeloty (najbliższe 24 godziny)

TLE

Starzejące sięSource: Space-Track

Epoka: Aug 29, 2026, 21:03 UTC

1  3291U 68050H   26241.87713270 -.00000113  00000-0  00000+0 0  9999
2  3291   7.0734  54.1062 0076443 137.1489  19.6428  1.06767719226816

Śledź OPS 9348 w czasie rzeczywistym z AllMySat

Download on the App Store